CEST,Max TemperatureF,Mean TemperatureF,Min TemperatureF,Max Dew PointF,MeanDew PointF,Min DewpointF,Max Humidity, Mean Humidity, Min Humidity, Max Sea Level PressureIn, Mean Sea Level PressureIn, Min Sea Level PressureIn, Max VisibilityMiles, Mean VisibilityMiles, Min VisibilityMiles, Max Wind SpeedMPH, Mean Wind SpeedMPH, Max Gust SpeedMPH,PrecipitationIn, CloudCover, Events, WindDirDegrees
2012-9-1,75,70,64,61,58,54,78,65,50,30.01,29.94,29.89,6,6,4,14,7,,0.00,2,,182
2012-9-2,77,68,60,68,61,55,94,77,47,30.04,30.01,29.95,6,6,5,14,4,,0.00,3,Rain,52
2012-9-3,77,70,62,66,62,59,100,79,57,29.95,29.92,29.89,6,6,2,13,5,18,0.00,3,Rain-Thunderstorm,142
2012-9-4,69,68,66,66,64,61,94,87,78,29.92,29.85,29.83,6,6,3,20,6,31,0.00,4,Rain-Thunderstorm,80
2012-9-5,77,72,66,68,65,63,94,82,65,29.92,29.88,29.86,6,6,4,16,9,24,0.00,3,Rain-Thunderstorm,105
2012-9-6,84,75,66,72,67,63,94,80,48,30.04,29.97,29.92,6,6,4,10,5,,0.00,3,Rain,336
2012-9-7,86,76,66,68,64,57,94,71,40,30.12,30.09,30.04,6,6,6,10,3,,0.00,2,,248
2012-9-8,84,74,64,68,62,46,94,69,27,30.12,30.07,30.04,6,6,6,9,3,,0.00,1,,297
2012-9-9,84,76,68,70,67,64,94,77,51,30.06,30.04,30.04,6,6,4,9,4,,0.00,2,,187
2012-9-10,82,74,66,70,66,59,94,79,51,30.06,30.05,30.04,6,5,2,10,3,,0.00,2,,208
2012-9-11,82,73,64,68,65,61,94,76,48,30.06,30.04,30.01,6,5,4,12,3,,0.00,1,,261
2012-9-12,82,75,68,70,67,63,94,80,54,30.01,29.91,29.74,6,6,4,17,6,,0.00,3,Thunderstorm,177
2012-9-13,75,68,60,70,62,55,94,84,61,29.74,29.58,29.50,6,6,4,15,9,31,0.00,5,Rain-Thunderstorm,206
2012-9-14,62,60,57,59,56,54,94,89,82,29.68,29.56,29.53,6,6,4,12,8,25,0.00,4,Rain,21
2012-9-15,80,68,57,63,57,54,94,73,39,29.89,29.76,29.68,6,6,6,8,5,,0.00,1,,37
2012-9-16,77,68,59,64,60,55,94,77,57,29.92,29.91,29.89,6,6,6,9,4,,0.00,2,,46
2012-9-17,77,67,57,61,56,52,94,71,44,29.98,29.95,29.92,6,6,6,9,3,,0.00,1,,22
2012-9-18,77,67,57,64,59,55,94,76,54,30.01,29.97,29.95,6,6,6,9,3,,0.00,2,,194
2012-9-19,73,66,59,66,60,54,94,83,64,29.98,29.91,29.86,6,6,2,15,4,,0.00,4,Rain-Thunderstorm,136
2012-9-20,77,68,59,64,55,41,94,68,31,30.12,29.99,29.89,6,5,0,13,4,,0.00,2,Fog,11
2012-9-21,75,64,53,63,55,46,94,74,53,30.18,30.14,30.12,6,6,6,8,2,,0.00,2,,113
2012-9-22,77,67,57,66,61,54,94,79,65,30.12,30.06,30.04,6,6,6,12,4,,0.00,3,,146
2012-9-23,78,71,64,70,65,61,88,75,54,30.04,30.01,29.95,6,6,6,17,6,,0.00,3,,157
2012-9-24,84,74,64,73,68,63,94,81,58,29.95,29.85,29.74,6,6,6,26,8,39,0.00,3,,146
2012-9-25,78,72,66,70,65,61,94,79,57,29.92,29.89,29.86,6,6,5,18,8,,0.00,3,Rain,163
2012-9-26,78,73,68,68,64,54,94,71,42,29.95,29.92,29.89,6,6,4,28,13,39,0.00,4,Rain,149
2012-9-27,84,78,69,73,69,57,94,77,50,30.01,29.96,29.89,6,6,6,21,13,,0.00,2,,165
2012-9-28,86,76,66,66,60,50,88,63,29,30.04,30.00,29.98,6,6,6,16,3,,0.00,4,,135
2012-9-29,89,78,66,70,55,46,83,49,22,29.98,29.94,29.89,6,6,6,24,8,39,0.00,3,,155
2012-9-30,75,68,62,70,65,59,94,88,73,30.06,30.00,29.95,6,6,4,16,6,29,0.00,4,Rain-Thunderstorm,104